When you browse on this site, cookies collect data to enhance your experience and personalize the content and advertising you see.
Visit our Privacy Policy to learn more. By continuing to use the site, you agree to this use of cookies and data.
  • In Sweden
  • List of Countries
  • For 7 days
  • Water Temperature
  • Satellite Maps
  • Weather Map
  • Weather Widgets
  • user-avatar
    Login

    Hourly Weather Ivrovo

    Today, 16 January, Wednesday

    Time Temperature Precipitation Wind Pressure Humidity
    00:00 -12°C° 0 mm 4 mps 730 mmHg 96%
    01:00 -12°C° 0 mm 4 mps 730 mmHg 96%
    02:00 -12°C° 0 mm 3 mps 730 mmHg 96%
    03:00 -12°C° 0 mm 3 mps 730 mmHg 96%
    04:00 -10°C° 0 mm 2 mps 730 mmHg 96%
    05:00 -10°C° 0 mm 2 mps 730 mmHg 96%
    06:00 -10°C° 0 mm 2 mps 730 mmHg 96%
    07:00 -10°C° 0 mm 2 mps 730 mmHg 96%
    08:00 -12°C° 0 mm 2 mps 730 mmHg 96%
    09:00 -10°C° 0 mm 2 mps 730 mmHg 96%
    10:00 -9°C° 0 mm 2 mps 730 mmHg 95%
    11:00 -8°C° 0 mm 2 mps 731 mmHg 94%
    12:00 -8°C° 0 mm 2 mps 731 mmHg 94%
    13:00 -7°C° 0 mm 2 mps 731 mmHg 94%
    14:00 -7°C° 0 mm 2 mps 731 mmHg 94%
    15:00 -7°C° 0 mm 2 mps 731 mmHg 94%
    16:00 -8°C° 0 mm 2 mps 732 mmHg 94%
    17:00 -10°C° 0 mm 3 mps 732 mmHg 95%
    18:00 -10°C° 0 mm 3 mps 733 mmHg 94%
    19:00 -10°C° 0 mm 3 mps 733 mmHg 93%
    20:00 -10°C° 0 mm 3 mps 734 mmHg 92%
    21:00 -11°C° 0 mm 4 mps 734 mmHg 92%
    22:00 -10°C° 0 mm 4 mps 735 mmHg 93%
    23:00 -10°C° 0 mm 4 mps 735 mmHg 93%

    Tomorrow, 17 January, Thursday

    Time Temperature Precipitation Wind Pressure Humidity
    00:00 -10°C° 0 mm 4 mps 735 mmHg 93%
    01:00 -9°C° 0 mm 4 mps 736 mmHg 93%
    02:00 -9°C° 0 mm 4 mps 736 mmHg 93%
    03:00 -9°C° 0 mm 4 mps 736 mmHg 93%
    04:00 -10°C° 0 mm 5 mps 737 mmHg 92%
    05:00 -10°C° 0 mm 5 mps 737 mmHg 92%
    06:00 -11°C° 0 mm 5 mps 737 mmHg 92%
    07:00 -11°C° 0 mm 4 mps 737 mmHg 92%
    08:00 -11°C° 0 mm 4 mps 737 mmHg 92%
    09:00 -12°C° 0 mm 5 mps 737 mmHg 92%
    10:00 -11°C° 0 mm 6 mps 737 mmHg 92%
    11:00 -12°C° 0 mm 7 mps 737 mmHg 92%
    12:00 -11°C° 0.1 mm 7 mps 736 mmHg 91%
    13:00 -10°C° 0.1 mm 8 mps 736 mmHg 91%
    14:00 -8°C° 0.1 mm 8 mps 736 mmHg 90%
    15:00 -8°C° 0.3 mm 8 mps 735 mmHg 91%
    16:00 -8°C° 0.3 mm 8 mps 735 mmHg 91%
    17:00 -7°C° 0.3 mm 8 mps 735 mmHg 91%
    18:00 -6°C° 0.2 mm 9 mps 734 mmHg 90%
    19:00 -6°C° 0.2 mm 9 mps 733 mmHg 89%
    20:00 -5°C° 0.2 mm 9 mps 733 mmHg 88%
    21:00 -4°C° 0.1 mm 9 mps 733 mmHg 87%
    22:00 -4°C° 0.1 mm 9 mps 732 mmHg 87%
    23:00 -4°C° 0.1 mm 9 mps 732 mmHg 86%

    Day after tomorrow, 18 January, Friday

    Time Temperature Precipitation Wind Pressure Humidity
    00:00 -4°C° 0.1 mm 9 mps 732 mmHg 86%
    01:00 -3°C° 0.1 mm 9 mps 733 mmHg 87%
    02:00 -3°C° 0.1 mm 9 mps 733 mmHg 87%
    03:00 -2°C° 0 mm 8 mps 733 mmHg 88%
    04:00 -2°C° 0 mm 8 mps 734 mmHg 89%
    05:00 -2°C° 0 mm 8 mps 734 mmHg 90%
    06:00 -2°C° 0 mm 7 mps 734 mmHg 90%
    07:00 -2°C° 0 mm 7 mps 735 mmHg 89%
    08:00 -2°C° 0 mm 6 mps 735 mmHg 89%
    09:00 -2°C° 0 mm 6 mps 735 mmHg 90%
    10:00 -2°C° 0 mm 6 mps 736 mmHg 90%
    11:00 -2°C° 0 mm 7 mps 736 mmHg 90%
    12:00 -2°C° 0 mm 6 mps 736 mmHg 91%
    13:00 -2°C° 0 mm 6 mps 735 mmHg 91%
    14:00 -1°C° 0 mm 5 mps 735 mmHg 92%
    15:00 -2°C° 0.2 mm 6 mps 735 mmHg 92%
    16:00 -2°C° 0.2 mm 6 mps 734 mmHg 91%
    17:00 -2°C° 0.2 mm 7 mps 734 mmHg 91%
    18:00 -2°C° 0.3 mm 7 mps 734 mmHg 91%
    19:00 -2°C° 0.3 mm 7 mps 733 mmHg 91%
    20:00 -2°C° 0.3 mm 7 mps 733 mmHg 91%
    21:00 -2°C° 0.1 mm 7 mps 733 mmHg 89%
    22:00 -2°C° 0.1 mm 7 mps 733 mmHg 87%
    23:00 -2°C° 0.1 mm 7 mps 733 mmHg 86%

    19 January, Saturday

    Time Temperature Precipitation Wind Pressure Humidity
    00:00 -3°C° 0.1 mm 7 mps 734 mmHg 86%
    01:00 -4°C° 0.1 mm 7 mps 735 mmHg 87%
    02:00 -6°C° 0.1 mm 7 mps 736 mmHg 87%
    03:00 -9°C° 0 mm 6 mps 737 mmHg 89%
    04:00 -11°C° 0 mm 5 mps 738 mmHg 90%
    05:00 -12°C° 0 mm 4 mps 739 mmHg 92%
    06:00 -14°C° 0 mm 4 mps 739 mmHg 92%
    07:00 -14°C° 0 mm 4 mps 740 mmHg 92%
    08:00 -15°C° 0 mm 4 mps 741 mmHg 93%
    09:00 -14°C° 0 mm 4 mps 741 mmHg 92%
    10:00 -13°C° 0 mm 5 mps 742 mmHg 92%
    11:00 -12°C° 0 mm 5 mps 742 mmHg 92%
    12:00 -12°C° 0 mm 6 mps 742 mmHg 91%
    13:00 -12°C° 0 mm 6 mps 742 mmHg 90%
    14:00 -11°C° 0 mm 6 mps 743 mmHg 88%
    15:00 -11°C° 0 mm 6 mps 743 mmHg 89%
    16:00 -11°C° 0 mm 5 mps 743 mmHg 89%
    17:00 -11°C° 0 mm 5 mps 743 mmHg 89%
    18:00 -11°C° 0 mm 5 mps 744 mmHg 90%
    19:00 -11°C° 0 mm 5 mps 744 mmHg 90%
    20:00 -11°C° 0 mm 5 mps 744 mmHg 91%
    21:00 -11°C° 0 mm 5 mps 744 mmHg 91%
    22:00 -10°C° 0 mm 5 mps 744 mmHg 91%
    23:00 -10°C° 0 mm 5 mps 745 mmHg 92%

    20 January, Sunday

    Time Temperature Precipitation Wind Pressure Humidity
    00:00 -10°C° 0 mm 5 mps 745 mmHg 92%
    01:00 -11°C° 0 mm 5 mps 745 mmHg 92%
    02:00 -11°C° 0 mm 5 mps 745 mmHg 92%
    03:00 -11°C° 0 mm 5 mps 745 mmHg 92%
    04:00 -11°C° 0 mm 5 mps 745 mmHg 92%
    05:00 -10°C° 0 mm 4 mps 744 mmHg 92%
    06:00 -10°C° 0 mm 4 mps 745 mmHg 92%
    07:00 -9°C° 0 mm 4 mps 745 mmHg 92%
    08:00 -9°C° 0 mm 4 mps 745 mmHg 92%
    09:00 -10°C° 0 mm 5 mps 745 mmHg 92%
    10:00 -8°C° 0 mm 5 mps 746 mmHg 91%
    11:00 -8°C° 0 mm 5 mps 746 mmHg 90%
    12:00 -8°C° 0 mm 5 mps 746 mmHg 90%
    13:00 -8°C° 0 mm 5 mps 746 mmHg 90%
    14:00 -8°C° 0 mm 5 mps 746 mmHg 89%
    15:00 -8°C° 0 mm 4 mps 746 mmHg 89%
    16:00 -8°C° 0 mm 4 mps 746 mmHg 89%
    17:00 -7°C° 0 mm 3 mps 746 mmHg 90%
    18:00 -8°C° 0 mm 3 mps 746 mmHg 91%
    19:00 -8°C° 0 mm 3 mps 746 mmHg 92%
    20:00 -9°C° 0 mm 3 mps 746 mmHg 93%
    21:00 -9°C° 0 mm 3 mps 746 mmHg 94%
    22:00 -10°C° 0 mm 3 mps 746 mmHg 95%
    23:00 -10°C° 0 mm 3 mps 746 mmHg 96%

    21 January, Monday

    Time Temperature Precipitation Wind Pressure Humidity
    00:00 -10°C° 0 mm 3 mps 745 mmHg 96%
    01:00 -12°C° 0 mm 3 mps 745 mmHg 96%
    02:00 -12°C° 0 mm 3 mps 745 mmHg 97%
    03:00 -10°C° 0 mm 2 mps 745 mmHg 97%
    04:00 -12°C° 0 mm 2 mps 744 mmHg 97%
    05:00 -12°C° 0 mm 2 mps 744 mmHg 97%
    06:00 -10°C° 0 mm 1 mps 744 mmHg 97%
    07:00 -10°C° 0 mm 1 mps 744 mmHg 97%
    08:00 -10°C° 0 mm 1 mps 743 mmHg 97%
    09:00 -9°C° 0 mm 1 mps 743 mmHg 96%
    10:00 -9°C° 0 mm 1 mps 743 mmHg 95%
    11:00 -8°C° 0 mm 0 mps 743 mmHg 94%
    12:00 -8°C° 0 mm 1 mps 743 mmHg 93%
    13:00 -8°C° 0 mm 1 mps 742 mmHg 92%
    14:00 -8°C° 0 mm 1 mps 742 mmHg 92%
    15:00 -8°C° 0 mm 1 mps 742 mmHg 92%
    16:00 -9°C° 0 mm 1 mps 742 mmHg 93%
    17:00 -10°C° 0 mm 2 mps 742 mmHg 94%
    18:00 -12°C° 0 mm 2 mps 742 mmHg 95%
    19:00 -12°C° 0 mm 2 mps 742 mmHg 95%
    20:00 -13°C° 0 mm 2 mps 742 mmHg 95%
    21:00 -13°C° 0 mm 2 mps 742 mmHg 95%
    22:00 -13°C° 0 mm 2 mps 742 mmHg 95%
    23:00 -13°C° 0 mm 2 mps 742 mmHg 95%
    Show more